Météo par heure à Abakan

Ce jour, 17 Avril, Samedi

Heure Température Précipitation Vent Pression Humidité
00:00 +8°C° 0 mm 5 m/s 735 mmHg 72%
01:00 +8°C° 0 mm 5 m/s 735 mmHg 70%
02:00 +8°C° 0 mm 5 m/s 734 mmHg 68%
03:00 +9°C° 0 mm 6 m/s 734 mmHg 65%
04:00 +5°C° 0.3 mm 6 m/s 735 mmHg 72%
05:00 +3°C° 0.3 mm 6 m/s 735 mmHg 78%
06:00 +1°C° 0.3 mm 6 m/s 736 mmHg 85%
07:00 -1°C° 1 mm 6 m/s 736 mmHg 86%
08:00 -2°C° 1 mm 6 m/s 737 mmHg 87%
09:00 -3°C° 1 mm 6 m/s 737 mmHg 88%
10:00 -1°C° 0.8 mm 5 m/s 738 mmHg 88%
11:00 -1°C° 0.8 mm 4 m/s 739 mmHg 87%
12:00 0°C° 0.8 mm 3 m/s 739 mmHg 87%
13:00 +1°C° 0.1 mm 3 m/s 740 mmHg 77%
14:00 +1°C° 0.1 mm 4 m/s 740 mmHg 67%
15:00 +1°C° 0.1 mm 4 m/s 741 mmHg 57%
16:00 +1°C° 0 mm 4 m/s 741 mmHg 58%
17:00 +1°C° 0 mm 3 m/s 741 mmHg 59%
18:00 +1°C° 0 mm 3 m/s 742 mmHg 59%
19:00 0°C° 0 mm 3 m/s 742 mmHg 63%
20:00 -1°C° 0 mm 2 m/s 743 mmHg 66%
21:00 -1°C° 0 mm 2 m/s 743 mmHg 70%
22:00 -2°C° 0 mm 2 m/s 744 mmHg 70%
23:00 0°C° 0 mm 1 m/s 744 mmHg 70%

Demain, 18 Avril, Dimanche

Heure Température Précipitation Vent Pression Humidité
00:00 -1°C° 0 mm 0 m/s 744 mmHg 70%
01:00 -1°C° 0 mm 0 m/s 744 mmHg 72%
02:00 -1°C° 0 mm 1 m/s 744 mmHg 74%
03:00 -1°C° 0 mm 1 m/s 743 mmHg 75%
04:00 -1°C° 0 mm 1 m/s 743 mmHg 76%
05:00 -1°C° 0 mm 1 m/s 743 mmHg 78%
06:00 -2°C° 0 mm 2 m/s 743 mmHg 79%
07:00 -2°C° 0 mm 2 m/s 742 mmHg 76%
08:00 -1°C° 0 mm 2 m/s 742 mmHg 73%
09:00 +1°C° 0 mm 2 m/s 741 mmHg 71%
10:00 +1°C° 0 mm 3 m/s 740 mmHg 69%
11:00 +2°C° 0 mm 3 m/s 740 mmHg 67%
12:00 +3°C° 0 mm 3 m/s 739 mmHg 66%
13:00 +4°C° 0 mm 3 m/s 739 mmHg 61%
14:00 +5°C° 0 mm 3 m/s 738 mmHg 56%
15:00 +7°C° 0 mm 3 m/s 738 mmHg 52%
16:00 +5°C° 0 mm 3 m/s 737 mmHg 53%
17:00 +6°C° 0 mm 2 m/s 737 mmHg 55%
18:00 +6°C° 0 mm 2 m/s 737 mmHg 57%
19:00 +4°C° 0 mm 3 m/s 736 mmHg 60%
20:00 +4°C° 0 mm 3 m/s 736 mmHg 64%
21:00 +3°C° 0 mm 3 m/s 736 mmHg 67%
22:00 +3°C° 0 mm 3 m/s 735 mmHg 70%
23:00 +3°C° 0 mm 3 m/s 734 mmHg 72%

Après-demain, 19 Avril, Lundi

Heure Température Précipitation Vent Pression Humidité
00:00 +4°C° 0 mm 2 m/s 733 mmHg 75%
01:00 +2°C° 0 mm 3 m/s 731 mmHg 76%
02:00 +2°C° 0 mm 3 m/s 730 mmHg 77%
03:00 +2°C° 0 mm 3 m/s 729 mmHg 79%
04:00 +3°C° 0 mm 4 m/s 729 mmHg 76%
05:00 +3°C° 0 mm 5 m/s 728 mmHg 73%
06:00 +4°C° 0 mm 6 m/s 728 mmHg 69%
07:00 +4°C° 0.1 mm 8 m/s 729 mmHg 64%
08:00 +3°C° 0.1 mm 10 m/s 730 mmHg 60%
09:00 +3°C° 0.1 mm 12 m/s 731 mmHg 55%
10:00 +3°C° 0 mm 12 m/s 733 mmHg 48%
11:00 +2°C° 0 mm 11 m/s 735 mmHg 41%
12:00 +1°C° 0 mm 11 m/s 736 mmHg 34%
13:00 +1°C° 0 mm 10 m/s 737 mmHg 33%
14:00 +1°C° 0 mm 9 m/s 738 mmHg 33%
15:00 +1°C° 0 mm 8 m/s 739 mmHg 32%
16:00 0°C° 0 mm 7 m/s 739 mmHg 34%
17:00 0°C° 0 mm 7 m/s 740 mmHg 35%
18:00 -1°C° 0 mm 6 m/s 741 mmHg 37%
19:00 -2°C° 0 mm 6 m/s 741 mmHg 40%
20:00 -2°C° 0 mm 5 m/s 742 mmHg 44%
21:00 -5°C° 0 mm 5 m/s 743 mmHg 47%
22:00 -4°C° 0 mm 4 m/s 743 mmHg 47%
23:00 -5°C° 0 mm 4 m/s 743 mmHg 47%

20 Avril, Mardi

Heure Température Précipitation Vent Pression Humidité
00:00 -5°C° 0 mm 3 m/s 744 mmHg 47%
01:00 -5°C° 0 mm 3 m/s 744 mmHg 47%
02:00 -6°C° 0 mm 3 m/s 744 mmHg 46%
03:00 -5°C° 0 mm 2 m/s 744 mmHg 45%
04:00 -5°C° 0 mm 2 m/s 744 mmHg 48%
05:00 -5°C° 0 mm 2 m/s 744 mmHg 50%
06:00 -5°C° 0 mm 2 m/s 745 mmHg 52%
07:00 -5°C° 0 mm 2 m/s 745 mmHg 49%
08:00 -4°C° 0 mm 2 m/s 745 mmHg 47%
09:00 -4°C° 0 mm 2 m/s 745 mmHg 44%
10:00 -3°C° 0 mm 2 m/s 744 mmHg 40%
11:00 -2°C° 0 mm 2 m/s 744 mmHg 35%
12:00 -1°C° 0 mm 2 m/s 744 mmHg 31%
13:00 -1°C° 0 mm 2 m/s 743 mmHg 30%
14:00 +1°C° 0 mm 2 m/s 743 mmHg 29%
15:00 0°C° 0 mm 3 m/s 742 mmHg 28%
16:00 0°C° 0 mm 3 m/s 742 mmHg 29%
17:00 -1°C° 0 mm 3 m/s 742 mmHg 29%
18:00 -2°C° 0 mm 4 m/s 742 mmHg 30%
19:00 -2°C° 0 mm 3 m/s 742 mmHg 33%
20:00 -2°C° 0 mm 3 m/s 742 mmHg 35%
21:00 -3°C° 0 mm 2 m/s 743 mmHg 38%
22:00 -3°C° 0 mm 2 m/s 743 mmHg 40%
23:00 -5°C° 0 mm 3 m/s 743 mmHg 43%

21 Avril, Mercredi

Heure Température Précipitation Vent Pression Humidité
00:00 -5°C° 0 mm 3 m/s 743 mmHg 46%
01:00 -4°C° 0 mm 2 m/s 743 mmHg 46%
02:00 -4°C° 0 mm 2 m/s 743 mmHg 47%
03:00 -5°C° 0 mm 2 m/s 743 mmHg 47%
04:00 -5°C° 0 mm 2 m/s 743 mmHg 46%
05:00 -5°C° 0 mm 2 m/s 744 mmHg 44%
06:00 -4°C° 0 mm 2 m/s 744 mmHg 43%
07:00 -4°C° 0 mm 2 m/s 744 mmHg 39%
08:00 -3°C° 0 mm 2 m/s 745 mmHg 36%
09:00 0°C° 0 mm 1 m/s 745 mmHg 33%
10:00 +1°C° 0 mm 1 m/s 745 mmHg 31%
11:00 +1°C° 0 mm 1 m/s 745 mmHg 30%
12:00 +2°C° 0 mm 1 m/s 744 mmHg 29%
13:00 +2°C° 0 mm 1 m/s 744 mmHg 28%
14:00 +3°C° 0 mm 1 m/s 744 mmHg 27%
15:00 +3°C° 0 mm 1 m/s 744 mmHg 26%
16:00 +3°C° 0 mm 1 m/s 744 mmHg 27%
17:00 +2°C° 0 mm 2 m/s 745 mmHg 28%
18:00 +2°C° 0 mm 2 m/s 745 mmHg 28%
19:00 +1°C° 0 mm 2 m/s 745 mmHg 32%
20:00 -1°C° 0 mm 3 m/s 745 mmHg 37%
21:00 -1°C° 0 mm 3 m/s 746 mmHg 41%
22:00 -2°C° 0 mm 3 m/s 746 mmHg 43%
23:00 -2°C° 0 mm 2 m/s 746 mmHg 44%

22 Avril, Jeudi

Heure Température Précipitation Vent Pression Humidité
00:00 -2°C° 0 mm 2 m/s 746 mmHg 46%
01:00 -3°C° 0 mm 2 m/s 746 mmHg 49%
02:00 -3°C° 0 mm 2 m/s 746 mmHg 51%
03:00 -3°C° 0 mm 2 m/s 746 mmHg 54%
04:00 -3°C° 0 mm 2 m/s 746 mmHg 52%
05:00 -4°C° 0 mm 3 m/s 747 mmHg 50%
06:00 -4°C° 0 mm 3 m/s 747 mmHg 47%
07:00 -2°C° 0 mm 3 m/s 747 mmHg 43%
08:00 -2°C° 0 mm 4 m/s 748 mmHg 38%
09:00 -1°C° 0 mm 4 m/s 748 mmHg 34%
10:00 0°C° 0 mm 4 m/s 748 mmHg 32%
11:00 +1°C° 0 mm 5 m/s 748 mmHg 31%
12:00 +2°C° 0 mm 5 m/s 748 mmHg 30%
13:00 +2°C° 0 mm 5 m/s 749 mmHg 31%
14:00 +2°C° 0 mm 6 m/s 749 mmHg 32%
15:00 +2°C° 0 mm 6 m/s 749 mmHg 33%
16:00 +2°C° 0 mm 6 m/s 750 mmHg 34%
17:00 +1°C° 0 mm 6 m/s 751 mmHg 35%
18:00 +1°C° 0 mm 6 m/s 751 mmHg 36%
19:00 0°C° 0 mm 5 m/s 752 mmHg 41%
20:00 -2°C° 0 mm 5 m/s 753 mmHg 46%
21:00 -3°C° 0 mm 4 m/s 754 mmHg 51%
22:00 -3°C° 0 mm 4 m/s 754 mmHg 52%
23:00 -3°C° 0 mm 4 m/s 754 mmHg 54%
Voir plus

Nous avons besoin de votre consentement

Meteoprog et ses fournisseurs de services peuvent stocker et accéder à des données personnelles telles que des cookies, des identifiants d'appareils ou d'autres technologies similaires sur votre appareil et traiter ces données pour personnaliser le contenu et les publicités, ainsi que pour fournir des fonctionnalités de médias sociaux et analyser le trafic.

  • Stocker et/ou accéder à des informations sur votre appareil

    Des cookies, des identifiants d'appareils ou d'autres informations peuvent être stockés ou accessibles sur votre appareil aux fins indiquées ci-dessus.

  • Annonces et contenus personnalisés, mesure des annonces et des contenus, connaissance de l'audience et développement de produits

    Les annonces et le contenu peuvent être personnalisés en fonction d'un profil. D'autres données peuvent être ajoutées pour mieux personnaliser les annonces et le contenu. Les performances des publicités et du contenu peuvent être mesurées. Il est possible d'obtenir des informations sur le public qui a vu les publicités et le contenu. Ces données peuvent être utilisées pour développer ou améliorer l'expérience de l'utilisateur, les systèmes et les logiciels.

En cliquant sur "J'accepte", vous autorisez l'utilisation de cookies, des identifiants d'appareils, des balises web ou d'autres technologies similaires. Vos paramètres peuvent être modifiés dans le navigateur de votre appareil.

Dans certains cas, des intérêts légitimes peuvent être invoqués plutôt qu'un consentement. Vous pouvez en savoir plus à ce sujet dans notre Politique de confidentialité et de cookies.